15 daagse weersverwachting Ňlesund (NO)

  • Overzicht
  • Per uur
  • 15 dagen
  • Extra
  • Vergelijk
  • Kaarten
  • Dagkaart
  • Meer »
  • Info
  • Statistieken
  • Directe link
    Temp 6h Neerslag Wind  
 03:41     23:35    Daglengte: 19:54 Vandaag
02:00
13°
2.7 mm
2
08:00
14°
4.4 mm
2
14:00
18°
 
3
20:00
14°
4.0 mm
1
 03:41     23:36    Daglengte: 19:55 Morgen
02:00
13°
1.3 mm
3
08:00
15°
 
5
14:00
16°
1.7 mm
8
20:00
15°
2.2 mm
4
 03:41     23:36    Daglengte: 19:55 Woensdag 19 Jun
02:00
12°
2.2 mm
2
08:00
14°
 
4
14:00
15°
 
5
20:00
13°
 
3
Locatie info
Region: MÝre og Romsdal
Latitude: 62.4715°N
Longitude: 6.1729°E
3 masl
Postcode: 6003
Temp/Neerslag /Baro Onweer/Dauwpunt
    Temp Baro 1h Neerslag Dauwpunt Wind UV Bewolking  
 03:41     23:35    Daglengte: 19:54 Vandaag
02:00
13°
1014.4 hPa 2.7 mm
49%
11.6°
2
Windvlaag: 2.8 km/h
88%
03:00
12°
1014.5 hPa 2.0 mm
82%
11.2°
2
Windvlaag: 2.4 km/h
56%
04:00
12°
1014.4 hPa 1.8 mm
82%
10.6°
3
Windvlaag: 2.6 km/h
27%
05:00
12°
1014.1 hPa 0.6 mm
82%
10.3°
2
Windvlaag: 3.1 km/h
18%
06:00
12°
1014.0 hPa
81%
10.4°
2
Windvlaag: 3.1 km/h
17%
07:00
13°
1013.9 hPa
76%
10.8°
2
Windvlaag: 3.4 km/h
7%
08:00
14°
1013.8 hPa
63%
11.3°
2
Windvlaag: 3.5 km/h
7%
09:00
15°
1013.5 hPa
16%
9.4°
2
Windvlaag: 4.4 km/h
1%
10:00
15°
1013.2 hPa
15%
8.4°
2
Windvlaag: 3.4 km/h
0%
11:00
16°
1012.6 hPa
17%
8.3°
2
Windvlaag: 3.1 km/h
1%
12:00
17°
1012.2 hPa
15%
8.3°
2
Windvlaag: 3 km/h
6%
13:00
17°
1011.6 hPa
15%
9.9°
3
Windvlaag: 4.2 km/h
4%
14:00
18°
1011.0 hPa
18%
9.8°
3
Windvlaag: 4.2 km/h
50%
15:00
18°
1010.4 hPa
68%
9.0°
3
Windvlaag: 3.7 km/h
63%
16:00
18°
1009.7 hPa
77%
9.9°
2
Windvlaag: 4.3 km/h
71%
17:00
17°
1009.2 hPa 0.5 mm
74%
11.3°
3
Windvlaag: 5.6 km/h
88%
18:00
16°
1009.1 hPa 0.7 mm
82%
11.3°
3
Windvlaag: 4.7 km/h
86%
19:00
14°
1009.1 hPa 1.4 mm
82%
12.3°
2
Windvlaag: 5.1 km/h
85%
20:00
14°
1008.9 hPa 1.3 mm
82%
12.1°
1
Windvlaag: 2.6 km/h
81%
21:00
14°
1008.9 hPa 1.3 mm
82%
12.3°
2
Windvlaag: 2.2 km/h
57%
22:00
14°
1008.8 hPa
82%
12.4°
2
Windvlaag: 2.6 km/h
17%
23:00
14°
1008.9 hPa
82%
12.1°
2
Windvlaag: 5.1 km/h
7%
 03:41     23:36    Daglengte: 19:55 Morgen
00:00
13°
1008.8 hPa
82%
11.2°
2
Windvlaag: 6.8 km/h
0%
01:00
13°
1008.6 hPa
36%
10.0°
3
Windvlaag: 7.2 km/h
7%
02:00
13°
1008.4 hPa
17%
9.7°
3
Windvlaag: 7.2 km/h
1%
03:00
13°
1008.1 hPa
17%
9.5°
4
Windvlaag: 7.3 km/h
18%
04:00
13°
1007.8 hPa
20%
9.5°
4
Windvlaag: 7.5 km/h
62%
05:00
13°
1007.5 hPa
15%
9.4°
4
Windvlaag: 7.6 km/h
22%
06:00
13°
1007.2 hPa
22%
9.4°
5
Windvlaag: 7.8 km/h
13%
07:00
14°
1006.9 hPa
29%
10.0°
4
Windvlaag: 7.9 km/h
46%
08:00
15°
1006.8 hPa
37%
10.3°
5
Windvlaag: 7.9 km/h
45%
09:00
15°
1007.0 hPa
42%
10.1°
6
Windvlaag: 9.8 km/h
40%
10:00
15°
1007.2 hPa
82%
10.3°
7
Windvlaag: 10.2 km/h
40%
11:00
16°
1007.4 hPa 0.8 mm
80%
9.9°
7
Windvlaag: 10 km/h
30%
12:00
16°
1007.4 hPa 0.9 mm
78%
9.5°
8
Windvlaag: 11.8 km/h
31%
13:00
16°
1007.6 hPa
77%
9.6°
8
Windvlaag: 11.7 km/h
25%
14:00
16°
1007.8 hPa
68%
9.2°
8
Windvlaag: 12.2 km/h
23%
15:00
16°
1007.8 hPa
23%
9.1°
8
Windvlaag: 11.8 km/h
20%
16:00
16°
1007.9 hPa
66%
9.5°
7
Windvlaag: 11.7 km/h
26%
17:00
16°
1007.8 hPa
69%
9.3°
6
Windvlaag: 11.2 km/h
29%
18:00
15°
1007.6 hPa 1.3 mm
71%
9.5°
6
Windvlaag: 10 km/h
71%
19:00
15°
1007.6 hPa 0.9 mm
71%
10.4°
5
Windvlaag: 9.2 km/h
60%
20:00
15°
1007.4 hPa
72%
10.8°
4
Windvlaag: 8.1 km/h
65%
21:00
15°
1007.4 hPa
75%
11.2°
2
Windvlaag: 6.1 km/h
68%
22:00
14°
1007.4 hPa
82%
10.9°
2
Windvlaag: 3.9 km/h
49%
23:00
14°
1007.7 hPa 1.1 mm
100%
10.8°
2
Windvlaag: 3.5 km/h
76%
 03:41     23:36    Daglengte: 19:55 Woensdag 19 Jun
00:00
13°
1007.7 hPa 1.1 mm
100%
9.0°
3
Windvlaag: 4 km/h
49%
01:00
13°
1007.5 hPa
100%
8.5°
3
Windvlaag: 4.7 km/h
25%
02:00
12°
1007.6 hPa
97%
8.5°
2
Windvlaag: 5 km/h
35%
03:00
12°
1007.6 hPa
43%
8.6°
2
Windvlaag: 4.6 km/h
38%
04:00
12°
1007.6 hPa
54%
8.8°
2
Windvlaag: 4.6 km/h
54%
05:00
12°
1007.6 hPa
100%
9.1°
2
Windvlaag: 5.2 km/h
74%
06:00
13°
1007.7 hPa
96%
8.4°
3
Windvlaag: 6.1 km/h
60%
07:00
14°
1008.0 hPa
97%
8.2°
4
Windvlaag: 6.7 km/h
48%
08:00
14°
1008.4 hPa
95%
8.3°
4
Windvlaag: 6.7 km/h
48%
09:00
14°
1008.9 hPa
90%
8.6°
4
Windvlaag: 7.6 km/h
33%
10:00
15°
1009.2 hPa
96%
9.0°
4
Windvlaag: 8 km/h
27%
11:00
15°
1009.4 hPa
97%
9.4°
4
Windvlaag: 8.1 km/h
37%
12:00
15°
1009.7 hPa
97%
10.6°
5
Windvlaag: 9.1 km/h
51%
13:00
15°
1009.9 hPa
97%
11.6°
5
Windvlaag: 9.6 km/h
55%
14:00
15°
1010.1 hPa
97%
11.7°
5
Windvlaag: 9.4 km/h
40%
15:00
15°
1009.9 hPa
96%
11.8°
5
Windvlaag: 9.1 km/h
51%
16:00
14°
1009.6 hPa
95%
11.7°
4
Windvlaag: 7.8 km/h
49%
17:00
14°
1009.2 hPa
50%
11.7°
4
Windvlaag: 5.2 km/h
71%
18:00
14°
1008.8 hPa
27%
11.5°
3
Windvlaag: 2.6 km/h
77%
19:00
14°
1008.4 hPa
21%
11.3°
3
Windvlaag: 1.5 km/h
88%
20:00
13°
1008.0 hPa
21%
11.2°
3
Windvlaag: 0.3 km/h
98%
21:00
13°
1007.4 hPa
21%
11.3°
3
Windvlaag: 2.9 km/h
99%
22:00
13°
1006.8 hPa
21%
11.4°
3
Windvlaag: 4.5 km/h
98%
23:00
13°
1006.2 hPa
21%
11.2°
3
Windvlaag: 6.4 km/h
95%
 03:41     23:37    Daglengte: 19:56 Donderdag 20 Jun
00:00
13°
1005.5 hPa
44%
11.2°
3
Windvlaag: 7.6 km/h
94%
01:00
13°
1004.8 hPa 1.6 mm
100%
11.3°
3
Windvlaag: 9.8 km/h
85%
Temp/Neerslag /Baro Onweer/Dauwpunt
    Temp Baro Neerslag Dauwpunt Wind Bewolking  
 03:41     23:35    Daglengte: 19:54 Vandaag
02:00
13°
1014.4 hPa 2.7 mm 11.6°
2
88%
05:00
12°
1014.1 hPa 4.4 mm 10.3°
2
18%
08:00
14°
1013.8 hPa   11.3°
2
7%
11:00
16°
1012.6 hPa   8.3°
2
1%
14:00
18°
1011.0 hPa   9.8°
3
50%
17:00
17°
1009.2 hPa 0.5 mm 11.3°
3
88%
20:00
14°
1008.9 hPa 3.4 mm 12.1°
1
81%
23:00
14°
1008.9 hPa 1.3 mm 12.1°
2
7%
 03:41     23:36    Daglengte: 19:55 Morgen
02:00
13°
1008.4 hPa   9.7°
3
1%
05:00
13°
1007.5 hPa   9.4°
4
22%
08:00
15°
1006.8 hPa   10.3°
5
45%
11:00
16°
1007.4 hPa 0.8 mm 9.9°
7
30%
14:00
16°
1007.8 hPa 0.9 mm 9.2°
8
23%
17:00
16°
1007.8 hPa   9.3°
6
29%
20:00
15°
1007.4 hPa 2.2 mm 10.8°
4
65%
23:00
14°
1007.7 hPa 1.1 mm 10.8°
2
76%
 03:41     23:36    Daglengte: 19:55 Woensdag 19 Jun
02:00
12°
1007.6 hPa 1.1 mm 8.5°
2
35%
05:00
12°
1007.6 hPa   9.1°
2
74%
08:00
14°
1008.4 hPa   8.3°
4
48%
11:00
15°
1009.4 hPa   9.4°
4
37%
14:00
15°
1010.1 hPa   11.7°
5
40%
17:00
14°
1009.2 hPa   11.7°
4
71%
20:00
13°
1008.0 hPa   11.2°
3
98%
23:00
13°
1006.2 hPa   11.2°
3
95%
 03:41     23:37    Daglengte: 19:56 Donderdag 20 Jun
02:00
13°
1004.0 hPa 4.7 mm 11.3°
2
95%
05:00
13°
1002.5 hPa 25.9 mm 11.6°
2
91%
08:00
13°
1001.4 hPa 27.5 mm 11.9°
1
90%
11:00
14°
1002.6 hPa 28.4 mm 11.7°
2
90%
14:00
14°
1003.8 hPa 29.7 mm 11.6°
3
90%
17:00
14°
1004.5 hPa 30.8 mm 10.9°
5
67%
20:00
14°
1005.2 hPa 31.2 mm 10.2°
6
44%
23:00
12°
1006.1 hPa 31.8 mm 10.1°
4
45%
 03:41     23:37    Daglengte: 19:56 Vrijdag 21 Jun
02:00
11°
1006.9 hPa 32.7 mm 9.8°
3
46%
05:00
12°
1007.0 hPa 34.5 mm 9.4°
3
43%
08:00
13°
1007.0 hPa 37.0 mm 8.8°
3
39%
11:00
14°
1007.2 hPa 37.2 mm 8.5°
4
51%
14:00
14°
1007.3 hPa 37.7 mm 8.3°
4
63%
17:00
13°
1007.8 hPa 38.4 mm 8.8°
4
68%
20:00
12°
1008.2 hPa 39.5 mm 9.2°
4
72%
23:00
11°
1009.0 hPa 41.1 mm 8.5°
5
60%
 03:41     23:37    Daglengte: 19:56 Zaterdag 22 Jun
02:00
10°
Voelt als: 7.4°
1009.7 hPa 43.9 mm 7.5°
5
47%
05:00
10°
1010.4 hPa 44.2 mm 7.6°
6
60%
08:00
11°
1011.2 hPa 44.2 mm 7.7°
6
73%
11:00
12°
1012.5 hPa 44.6 mm 7.9°
7
73%
14:00
12°
1013.9 hPa 46.5 mm 8.0°
7
73%
17:00
12°
1014.9 hPa 46.6 mm 8.0°
7
73%
20:00
11°
1015.9 hPa 46.7 mm 8.0°
7
72%
23:00
10°
1016.8 hPa 46.7 mm 7.9°
6
68%
 03:42     23:37    Daglengte: 19:55 Zondag 23 Jun
02:00
10°
Voelt als: 7.0°
1017.7 hPa 46.7 mm 7.6°
5
63%
05:00
10°
1019.8 hPa 46.7 mm 7.7°
5
64%
08:00
11°
1022.0 hPa 46.7 mm 7.8°
4
64%
11:00
12°
1022.4 hPa 46.8 mm 7.8°
4
68%
14:00
13°
1022.8 hPa 46.8 mm 7.9°
5
72%
17:00
12°
1023.1 hPa 46.9 mm 8.0°
4
77%
20:00
12°
1023.5 hPa 47.0 mm 8.0°
3
82%
23:00
11°
1023.4 hPa   7.9°
3
73%
 03:42     23:37    Daglengte: 19:55 Maandag 24 Jun
02:00
Voelt als: 8.7°
1023.2 hPa 94.2 mm 7.6°
2
64%
08:00
11°
1023.2 hPa 94.6 mm 8.3°
3
87%
14:00
14°
1023.1 hPa 94.7 mm 9.3°
4
83%
20:00
12°
1021.8 hPa 94.7 mm 9.0°
4
77%
 03:43     23:37    Daglengte: 19:54 Dinsdag 25 Jun
02:00
10°
1022.8 hPa 94.7 mm 8.8°
2
69%
08:00
11°
1021.5 hPa 94.7 mm 9.0°
3
91%
14:00
12°
1023.2 hPa 94.7 mm 8.9°
5
90%
20:00
12°
1023.3 hPa 94.7 mm 8.5°
5
89%
 03:44     23:36    Daglengte: 19:52 Woensdag 26 Jun
02:00
10°
1021.8 hPa 94.7 mm 8.6°
4
87%
08:00
11°
1022.0 hPa 94.7 mm 8.1°
4
86%
14:00
11°
1012.4 hPa 94.7 mm 7.8°
12
1%
20:00
14°
1018.6 hPa 0.4 mm 7.9°
1
42%
 03:45     23:36    Daglengte: 19:51 Donderdag 27 Jun
02:00
11°
1017.9 hPa 0.4 mm 8.1°
1
49%
08:00
13°
1015.7 hPa 0.6 mm 8.2°
1
53%
14:00
16°
1014.1 hPa 0.6 mm 8.2°
1
59%
20:00
14°
1012.9 hPa 0.5 mm 8.7°
1
61%
 03:46     23:35    Daglengte: 19:49 Vrijdag 28 Jun
02:00
11°
1012.5 hPa 0.9 mm 8.8°
1
59%
08:00
13°
1011.1 hPa 0.4 mm 9.0°
0
65%
14:00
16°
1010.3 hPa 0.6 mm 9.3°
2
58%
20:00
14°
1009.8 hPa 0.7 mm 9.2°
2
55%
 03:47     23:34    Daglengte: 19:47 Zaterdag 29 Jun
02:00
11°
1009.9 hPa 0.7 mm 8.5°
1
52%
08:00
12°
1009.3 hPa 0.5 mm 8.5°
1
56%
14:00
15°
1009.3 hPa 0.6 mm 8.7°
2
58%
20:00
14°
1009.4 hPa 0.4 mm 8.8°
2
55%
 03:48     23:33    Daglengte: 19:45 Zondag 30 Jun
02:00
11°
1009.8 hPa 0.3 mm 8.5°
0
52%
08:00
12°
1009.0 hPa 0.6 mm 8.6°
0
51%
14:00
15°
1008.6 hPa 0.8 mm 8.8°
2
52%
20:00
14°
1008.8 hPa 0.5 mm 8.8°
2
48%
 03:49     23:33    Daglengte: 19:44 Maandag 01 Jul
02:00
11°
1009.6 hPa 0.8 mm 8.7°
1
46%
08:00
12°
1009.5 hPa 0.8 mm 8.4°
1
51%
14:00
15°
1009.9 hPa 0.9 mm 8.6°
2
54%
20:00
14°
1010.5 hPa 0.9 mm 8.5°
2
47%
  CAPE Lifted Index Hail Supercell Tornado SRH 3km CL BTM PRES CL TOP PRES Swiss DWD icon SMHI TS
 03:41     23:35    Daglengte: 19:54 Vandaag
02:00 39 J/kg 3.7 K 0 % 0 % 0 % 0 m²/s² 0 0 3.94 61
03:00 10 J/kg 5.3 K 0 % 0 % 0 % 0 m²/s² 0 0 5.66 61
04:00 0 J/kg 7.0 K 0 % 0 % 0 % 0 m²/s² 0 0 8.05 61
05:00 0 J/kg 8.0 K 0 % 0 % 0 % 0 m²/s² 0 0 11.42 61
06:00 0 J/kg 7.9 K 0 % 0 % 0 % 0 m²/s² 0 0 12.19 61
07:00 0 J/kg 8.0 K 0 % 0 % 0 % 0 m²/s² 0 0 12.65 80
08:00 0 J/kg 7.6 K 0 % 0 % 0 % 0 m²/s² 0 0 11.47 2
09:00 0 J/kg 7.0 K 0 % 0 % 0 % 0 m²/s² 0 0 10.39 1
10:00 0 J/kg 6.3 K 0 % 0 % 0 % 0 m²/s² 0 0 10.17 0
11:00 0 J/kg 5.4 K 0 % 0 % 0 % 0 m²/s² 0 0 9 0
12:00 2 J/kg 4.6 K 0 % 0 % 0 % 0 m²/s² 0 0 7.6 0
13:00 0 J/kg 3.7 K 0 % 0 % 0 % 0 m²/s² 0 0 6.01 1
14:00 1 J/kg 3.3 K 0 % 0 % 0 % 0 m²/s² 0 0 3.75 3
15:00 0 J/kg 2.1 K 0 % 0 % 0 % 0 m²/s² 0 0 2.4 3
16:00 5 J/kg -0.1 K 0 % 0 % 0 % 0 m²/s² 0 0 0.65 2
17:00 82 J/kg -1.0 K 0 % 0 % 0 % 0 m²/s² 0 0 -0.1 3
18:00 59 J/kg -0.6 K 0 % 0 % 0 % 0 m²/s² 0 0 -0.09 80
19:00 224 J/kg -0.3 K 0 % 0 % 0 % 0 m²/s² 0 0 2.01 61
20:00 271 J/kg -0.4 K 0 % 0 % 0 % 0 m²/s² 0 0 2.03 61
21:00 261 J/kg -0.5 K 0 % 0 % 0 % 0 m²/s² 0 0 2.14 61
22:00 242 J/kg -0.4 K 0 % 0 % 0 % 0 m²/s² 0 0 2.54 61
23:00 208 J/kg -0.3 K 0 % 0 % 0 % 0 m²/s² 0 0 3.15 61
 03:41     23:36    Daglengte: 19:55 Morgen
00:00 206 J/kg -0.4 K 0 % 0 % 0 % 0 m²/s² 0 0 3.32 1
01:00 95 J/kg 0.1 K 0 % 0 % 0 % 0 m²/s² 0 0 3.19 3
02:00 28 J/kg 0.5 K 0 % 0 % 0 % 0 m²/s² 0 0 2.84 0
03:00 0 J/kg 1.2 K 0 % 0 % 0 % 0 m²/s² 0 0 3.33 1
04:00 8 J/kg 0.8 K 0 % 0 % 0 % 0 m²/s² 0 0 2.99 3
05:00 20 J/kg 0.5 K 0 % 0 % 0 % 0 m²/s² 0 0 2.9 3
06:00 51 J/kg 0.1 K 0 % 0 % 0 % 0 m²/s² 0 0 1.99 3
07:00 215 J/kg -1.1 K 0 % 0 % 0 % 0 m²/s² 0 0 0.37 3
08:00 388 J/kg -2.1 K 0 % 0 % 0 % 0 m²/s² 0 0 -0.69 3
09:00 443 J/kg -2.1 K 0 % 0 % 0 % 0 m²/s² 0 0 0.09 3
10:00 410 J/kg -1.6 K 0 % 0 % 0 % 0 m²/s² 0 0 0.8 3
11:00 256 J/kg -0.6 K 0 % 0 % 0 % 0 m²/s² 0 0 2.34 1
12:00 155 J/kg -0.2 K 0 % 0 % 0 % 0 m²/s² 0 0 1.93 1
13:00 100 J/kg 0.2 K 0 % 0 % 0 % 0 m²/s² 0 0 2.48 2
14:00 52 J/kg 0.6 K 0 % 0 % 0 % 0 m²/s² 0 0 3.48 2
15:00 66 J/kg 0.2 K 0 % 0 % 0 % 0 m²/s² 0 0 2.99 0
16:00 72 J/kg 0.3 K 0 % 0 % 0 % 0 m²/s² 0 0 2.31 1
17:00 20 J/kg 0.9 K 0 % 0 % 0 % 0 m²/s² 0 0 2.67 1
18:00 23 J/kg 0.9 K 0 % 0 % 0 % 0 m²/s² 0 0 3.66 80
19:00 161 J/kg -0.3 K 0 % 0 % 0 % 0 m²/s² 0 0 1.62 2
20:00 386 J/kg -1.8 K 0 % 0 % 0 % 0 m²/s² 0 0 -0.48 80
21:00 447 J/kg -2.2 K 0 % 0 % 0 % 0 m²/s² 0 0 -1 3
22:00 266 J/kg -0.6 K 0 % 0 % 0 % 0 m²/s² 0 0 0.24 3
23:00 172 J/kg 0.9 K 0 % 0 % 0 % 0 m²/s² 0 0 1.56 3
 03:41     23:36    Daglengte: 19:55 Woensdag 19 Jun
00:00 36 J/kg 2.6 K 0 % 0 % 0 % 0 m²/s² 0 0 3.77 3
01:00 0 J/kg 3.5 K 0 % 0 % 0 % 0 m²/s² 0 0 5.27 3
02:00 0 J/kg 3.2 K 0 % 0 % 0 % 0 m²/s² 0 0 5.39 3
03:00 0 J/kg 3.9 K 0 % 0 % 0 % 0 m²/s² 0 0 5.91 2
04:00 6 J/kg 4.3 K 0 % 0 % 0 % 0 m²/s² 0 0 6.73 3
05:00 5 J/kg 4.1 K 0 % 0 % 0 % 0 m²/s² 0 0 6.98 3
06:00 11 J/kg 4.1 K 0 % 0 % 0 % 0 m²/s² 0 0 6.77 2
07:00 53 J/kg 4.2 K 0 % 0 % 0 % 0 m²/s² 0 0 6.87 3
08:00 103 J/kg 3.2 K 0 % 0 % 0 % 0 m²/s² 0 0 5.63 3
09:00 113 J/kg 2.6 K 0 % 0 % 0 % 0 m²/s² 0 0 4.58 2
10:00 116 J/kg 2.1 K 0 % 0 % 0 % 0 m²/s² 0 0 3.66 2
11:00 109 J/kg 2.1 K 0 % 0 % 0 % 0 m²/s² 0 0 3.66 2
12:00 110 J/kg 2.3 K 0 % 0 % 0 % 0 m²/s² 0 0 3.74 3
13:00 68 J/kg 2.8 K 0 % 0 % 0 % 0 m²/s² 0 0 4.24 3
14:00 47 J/kg 3.0 K 0 % 0 % 0 % 0 m²/s² 0 0 4.38 2
15:00 14 J/kg 4.0 K 0 % 0 % 0 % 0 m²/s² 0 0 5.8 3
16:00 0 J/kg 4.5 K 0 % 0 % 0 % 0 m²/s² 0 0 6.81 3
17:00 0 J/kg 4.6 K 0 % 0 % 0 % 0 m²/s² 0 0 6.85 3
18:00 0 J/kg 4.6 K 0 % 0 % 0 % 0 m²/s² 0 0 6.73 3
19:00 0 J/kg 5.1 K 0 % 0 % 0 % 0 m²/s² 0 0 7.11 3
20:00 0 J/kg 5.2 K 0 % 0 % 0 % 0 m²/s² 0 0 6.61 3
21:00 0 J/kg 4.8 K 0 % 0 % 0 % 0 m²/s² 0 0 5.58 3
22:00 0 J/kg 4.5 K 0 % 0 % 0 % 0 m²/s² 0 0 5.1 3
23:00 0 J/kg 3.7 K 0 % 0 % 0 % 0 m²/s² 0 0 3.94 3
 03:41     23:37    Daglengte: 19:56 Donderdag 20 Jun
00:00 0 J/kg 3.9 K 0 % 0 % 0 % 0 m²/s² 0 0 4.23 3
01:00 0 J/kg 4.1 K 0 % 0 % 0 % 0 m²/s² 0 0 4.4 61
Temp Baro Wind Neerslag
  EWN Forecast EWN WRFDA DWD ICON FMI HIRLAM MET Norway GFS
 03:41     23:35    Daglengte: 19:54 Vandaag
02:00 12.7° 1014.4 hPa 2.0 m/s 2.7 mm 12.5° 1013.1 hPa 2.7 m/s 1.0 mm 12.2° 1014.9 hPa 1.5 m/s 5.0 mm 12.4° 1014.1 hPa 3.1 m/s 0.0 mm 12.5° 1014.4 hPa 1.9 m/s 0.0 mm 11.3° 1014.2 hPa 2.8 m/s
05:00 12.0° 1014.1 hPa 2.4 m/s 4.4 mm 11.1° 1012.8 hPa 5.5 m/s 3.1 mm 12.2° 1014.4 hPa 1.0 m/s 3.3 mm 11.8° 1014.0 hPa 2.6 m/s 0.0 mm 11.6° 1014.1 hPa 1.6 m/s 0.0 mm 11.2° 1014.0 hPa 1.8 m/s
08:00 13.5° 1013.8 hPa 2.1 m/s 0.0 mm 13.5° 1012.4 hPa 4.7 m/s 3.1 mm 13.0° 1013.9 hPa 1.0 m/s 0.9 mm 12.8° 1013.3 hPa 1.4 m/s 0.0 mm 13.5° 1013.9 hPa 1.9 m/s 0.0 mm 11.7° 1013.5 hPa 1.8 m/s
11:00 15.9° 1012.6 hPa 1.5 m/s 0.0 mm 15.4° 1011.0 hPa 1.2 m/s 3.1 mm 15.5° 1013.2 hPa 1.9 m/s 0.0 mm 15.3° 1012.1 hPa 1.6 m/s 0.0 mm 17.0° 1012.7 hPa 0.9 m/s 0.0 mm 12.7° 1012.7 hPa 4.3 m/s
14:00 17.7° 1011.0 hPa 2.5 m/s 0.0 mm 16.1° 1009.0 hPa 4.5 m/s 3.1 mm 17.6° 1011.5 hPa 2.1 m/s 0.0 mm 15.8° 1010.6 hPa 6.1 m/s 0.0 mm 19.5° 1011.2 hPa 2.0 m/s 0.0 mm 13.0° 1010.7 hPa 6.7 m/s
17:00 17.4° 1009.2 hPa 2.8 m/s 0.5 mm 15.3° 1008.8 hPa 1.3 m/s 5.7 mm 17.5° 1009.4 hPa 1.6 m/s 0.2 mm 13.7° 1008.2 hPa 4.8 m/s 0.0 mm 18.0° 1010.1 hPa 2.8 m/s 0.0 mm 12.5° 1010.0 hPa 1.2 m/s
20:00 13.8° 1008.9 hPa 1.2 m/s 3.4 mm 15.0° 1007.6 hPa 4.6 m/s 8.8 mm 14.3° 1008.9 hPa 1.1 m/s 2.6 mm 12.5° 1006.5 hPa 0.8 m/s 0.0 mm 13.9° 1009.6 hPa 0.3 m/s 2.6 mm 11.5° 1008.8 hPa 2.0 m/s
23:00 13.8° 1008.9 hPa 2.0 m/s 1.3 mm 13.6° 1008.1 hPa 2.8 m/s 10.3 mm 12.7° 1009.3 hPa 0.7 m/s 3.9 mm 12.4° 1006.4 hPa 1.3 m/s 0.0 mm 13.9° 1009.3 hPa 1.7 m/s 0.5 mm 11.5° 1009.4 hPa 0.6 m/s
 03:41     23:36    Daglengte: 19:55 Morgen
02:00 12.7° 1008.4 hPa 3.0 m/s 0.0 mm 12.2° 1007.3 hPa 5.6 m/s 10.6 mm 12.6° 1008.4 hPa 1.6 m/s 0.1 mm 12.7° 1005.9 hPa 2.4 m/s 0.0 mm 11.6° 1009.3 hPa 2.3 m/s 0.0 mm 11.4° 1009.0 hPa 2.6 m/s
05:00 12.9° 1007.5 hPa 3.9 m/s 0.0 mm 12.8° 1006.1 hPa 7.2 m/s 10.6 mm 13.2° 1007.4 hPa 1.6 m/s 0.0 mm 12.5° 1005.4 hPa 4.0 m/s 0.0 mm 11.6° 1008.2 hPa 2.9 m/s 0.0 mm 12.4° 1008.2 hPa 4.2 m/s
08:00 14.7° 1006.8 hPa 5.4 m/s 0.0 mm 14.9° 1004.8 hPa 7.9 m/s 10.6 mm 15.0° 1006.6 hPa 2.3 m/s 0.0 mm 12.3° 1005.5 hPa 8.9 m/s 0.0 mm 14.6° 1007.4 hPa 3.5 m/s 0.0 mm 12.5° 1007.2 hPa 6.2 m/s
11:00 15.6° 1007.4 hPa 6.7 m/s 0.8 mm 15.9° 1005.7 hPa 10.2 m/s 10.7 mm 14.9° 1007.6 hPa 5.0 m/s 0.3 mm 12.6° 1006.6 hPa 9.4 m/s 0.0 mm 15.9° 1007.9 hPa 5.9 m/s 0.0 mm 13.7° 1007.1 hPa 4.7 m/s
14:00 16.0° 1007.8 hPa 8.0 m/s 0.9 mm 16.0° 1006.0 hPa 9.4 m/s 10.7 mm 15.5° 1008.2 hPa 8.6 m/s 0.2 mm 12.9° 1007.7 hPa 5.5 m/s 0.0 mm 17.0° 1008.3 hPa 8.5 m/s 0.0 mm 13.7° 1007.0 hPa 7.8 m/s
17:00 15.8° 1007.8 hPa 6.2 m/s 0.0 mm 16.1° 1006.4 hPa 9.0 m/s 10.7 mm 15.5° 1007.9 hPa 6.0 m/s 0.1 mm 14.0° 1007.8 hPa 5.4 m/s 0.0 mm 17.0° 1008.9 hPa 7.0 m/s 0.0 mm 13.1° 1006.9 hPa 8.4 m/s
20:00 14.6° 1007.4 hPa 3.7 m/s 2.2 mm 14.7° 1005.4 hPa 7.0 m/s 11.0 mm 14.7° 1007.7 hPa 2.7 m/s 0.8 mm 12.9° 1007.2 hPa 3.6 m/s 0.0 mm 14.7° 1008.7 hPa 4.3 m/s 0.0 mm 12.5° 1006.2 hPa 7.6 m/s
23:00 13.7° 1007.7 hPa 2.0 m/s 1.1 mm 13.4° 1006.1 hPa 5.3 m/s 13.0 mm 13.2° 1007.8 hPa 1.2 m/s 0.2 mm 13.6° 1008.7 hPa 1.9 m/s 0.0 mm 12.0° 1007.3 hPa 6.5 m/s
 03:41     23:36    Daglengte: 19:55 Woensdag 19 Jun
02:00 12.3° 1007.6 hPa 2.4 m/s 1.1 mm 11.8° 1006.1 hPa 6.7 m/s 13.1 mm 12.6° 1007.5 hPa 0.7 m/s 0.5 mm 11.9° 1008.8 hPa 1.6 m/s 0.0 mm 11.8° 1007.4 hPa 4.6 m/s
05:00 12.4° 1007.6 hPa 2.3 m/s 0.0 mm 12.1° 1006.2 hPa 7.2 m/s 13.1 mm 12.3° 1007.5 hPa 0.3 m/s 0.1 mm 11.7° 1008.9 hPa 1.5 m/s 0.0 mm 11.9° 1008.4 hPa 4.9 m/s
08:00 14.0° 1008.4 hPa 3.8 m/s 0.0 mm 13.9° 1006.0 hPa 6.9 m/s 13.1 mm 13.3° 1008.9 hPa 1.7 m/s 0.0 mm 14.4° 1008.9 hPa 3.7 m/s 0.0 mm 12.2° 1008.2 hPa 4.1 m/s
11:00 15.2° 1009.4 hPa 4.3 m/s 0.0 mm 13.8° 1007.2 hPa 6.1 m/s 13.3 mm 14.4° 1009.8 hPa 2.5 m/s 0.2 mm 16.2° 1009.6 hPa 4.4 m/s 0.0 mm 12.1° 1009.3 hPa 3.4 m/s
14:00 15.0° 1010.1 hPa 4.7 m/s 0.0 mm 14.4° 1007.6 hPa 7.4 m/s 13.6 mm 14.8° 1010.2 hPa 1.7 m/s 0.2 mm 15.2° 1010.5 hPa 5.0 m/s 0.0 mm 12.3° 1009.7 hPa 2.7 m/s
17:00 14.3° 1009.2 hPa 3.7 m/s 0.0 mm 12.8° 1007.5 hPa 3.8 m/s 13.6 mm 15.3° 1010.6 hPa 2.1 m/s 0.2 mm 14.2° 1009.2 hPa 4.2 m/s 12.9° 1009.7 hPa 4.2 m/s
20:00 13.5° 1008.0 hPa 2.5 m/s 0.0 mm 13.2° 1006.0 hPa 1.9 m/s 13.6 mm 14.5° 1009.7 hPa 1.4 m/s 0.0 mm 13.3° 1007.9 hPa 3.3 m/s 11.8° 1008.6 hPa 2.6 m/s
23:00 12.9° 1006.2 hPa 2.7 m/s 0.0 mm 12.7° 1004.5 hPa 3.9 m/s 13.6 mm 14.0° 1008.3 hPa 1.4 m/s 0.0 mm 12.7° 1006.0 hPa 2.8 m/s 11.4° 1008.1 hPa 2.2 m/s
 03:41     23:37    Daglengte: 19:56 Donderdag 20 Jun
02:00 12.6° 1004.0 hPa 2.4 m/s 4.7 mm 13.0° 1000.9 hPa 5.2 m/s 13.6 mm 13.3° 1005.9 hPa 1.1 m/s 0.2 mm 12.1° 1004.1 hPa 2.3 m/s 11.3° 1005.3 hPa 2.4 m/s
05:00 12.7° 1002.5 hPa 1.6 m/s 25.9 mm 12.9° 1002.4 hPa 1.6 m/s 11.1° 1002.7 hPa 1.4 m/s 25.9 mm
08:00 13.1° 1001.4 hPa 1.4 m/s 27.5 mm 13.3° 1001.6 hPa 1.2 m/s 11.3° 999.3 hPa 3.1 m/s 27.5 mm
11:00 13.5° 1002.6 hPa 2.3 m/s 28.4 mm 13.7° 1003.0 hPa 2.2 m/s 11.8° 997.1 hPa 2.8 m/s 28.4 mm
14:00 13.9° 1003.8 hPa 3.1 m/s 29.7 mm 14.1° 1004.5 hPa 3.2 m/s 11.7° 996.5 hPa 2.5 m/s 29.7 mm
17:00 13.9° 1004.5 hPa 4.9 m/s 30.8 mm 14.0° 1005.0 hPa 4.3 m/s 12.5° 999.9 hPa 11.3 m/s 30.8 mm
20:00 13.7° 1005.2 hPa 5.9 m/s 31.2 mm 13.9° 1005.4 hPa 5.5 m/s 11.3° 1003.1 hPa 10.0 m/s 31.2 mm
23:00 12.5° 1006.1 hPa 4.2 m/s 31.8 mm 12.6° 1006.2 hPa 4.0 m/s 11.2° 1005.6 hPa 7.3 m/s 31.8 mm
 03:41     23:37    Daglengte: 19:56 Vrijdag 21 Jun
02:00 11.3° 1006.9 hPa 2.6 m/s 32.7 mm 11.3° 1007.0 hPa 2.4 m/s 11.1° 1006.3 hPa 5.0 m/s 32.7 mm
05:00 11.9° 1007.0 hPa 2.7 m/s 34.5 mm 12.1° 1007.0 hPa 2.8 m/s 10.8° 1007.0 hPa 2.7 m/s 34.5 mm
08:00 12.7° 1007.0 hPa 3.0 m/s 37.0 mm 12.8° 1007.0 hPa 3.1 m/s 11.7° 1007.2 hPa 2.5 m/s 37.0 mm
11:00 13.5° 1007.2 hPa 3.5 m/s 37.2 mm 13.6° 1007.1 hPa 3.5 m/s 12.5° 1007.6 hPa 4.0 m/s 37.2 mm
14:00 14.2° 1007.3 hPa 3.7 m/s 37.7 mm 14.4° 1007.3 hPa 3.9 m/s 11.9° 1007.6 hPa 1.1 m/s 37.7 mm
17:00 13.0° 1007.8 hPa 4.0 m/s 38.4 mm 13.2° 1007.8 hPa 4.3 m/s 11.6° 1008.0 hPa 1.3 m/s 38.4 mm
20:00 11.9° 1008.2 hPa 4.4 m/s 39.5 mm 11.9° 1008.2 hPa 4.7 m/s 11.4° 1008.2 hPa 1.6 m/s 39.5 mm
23:00 10.9° 1009.0 hPa 4.7 m/s 41.1 mm 10.9° 1009.0 hPa 5.0 m/s 11.2° 1009.3 hPa 1.1 m/s 41.1 mm
 03:41     23:37    Daglengte: 19:56 Zaterdag 22 Jun
02:00 9.9° 1009.7 hPa 5.5 m/s 43.9 mm 9.9° 1009.7 hPa 5.3 m/s 10.5° 1009.8 hPa 7.4 m/s 43.9 mm
05:00 10.3° 1010.4 hPa 5.8 m/s 44.2 mm 10.4° 1010.4 hPa 5.8 m/s 10.3° 1010.6 hPa 5.8 m/s 44.2 mm
08:00 10.8° 1011.2 hPa 6.3 m/s 44.2 mm 10.8° 1011.1 hPa 6.4 m/s 11.3° 1011.7 hPa 5.1 m/s 44.2 mm
11:00 11.5° 1012.5 hPa 6.7 m/s 44.6 mm 11.7° 1012.4 hPa 6.7 m/s 10.2° 1013.7 hPa 7.2 m/s 44.6 mm
14:00 12.3° 1013.9 hPa 7.1 m/s 46.5 mm 12.5° 1013.7 hPa 7.0 m/s 9.7° 1016.2 hPa 8.7 m/s 46.5 mm
17:00 11.6° 1014.9 hPa 6.9 m/s 46.6 mm 11.8° 1014.7 hPa 6.8 m/s 10.1° 1017.9 hPa 7.9 m/s 46.6 mm
20:00 11.0° 1015.9 hPa 6.7 m/s 46.7 mm 11.0° 1015.6 hPa 6.7 m/s 10.4° 1018.9 hPa 6.2 m/s 46.7 mm
23:00 10.3° 1016.8 hPa 6.0 m/s 46.7 mm 10.3° 1016.5 hPa 6.1 m/s 9.8° 1020.1 hPa 5.3 m/s 46.7 mm
 03:42     23:37    Daglengte: 19:55 Zondag 23 Jun
02:00 9.6° 1017.7 hPa 5.3 m/s 46.7 mm 9.6° 1017.5 hPa 5.5 m/s 9.6° 1020.1 hPa 3.0 m/s 46.7 mm
05:00 10.3° 1019.8 hPa 4.7 m/s 46.7 mm 10.3° 1019.9 hPa 4.9 m/s 9.3° 1019.7 hPa 2.4 m/s 46.7 mm
08:00 11.0° 1022.0 hPa 4.2 m/s 46.7 mm 11.1° 1022.2 hPa 4.3 m/s 9.7° 1019.8 hPa 2.6 m/s 46.7 mm
11:00 11.8° 1022.4 hPa 4.5 m/s 46.8 mm 11.9° 1022.6 hPa 4.7 m/s 10.6° 1019.8 hPa 2.4 m/s 46.7 mm
14:00 12.6° 1022.8 hPa 5.0 m/s 46.8 mm 12.8° 1023.0 hPa 5.0 m/s 10.7° 1020.1 hPa 4.9 m/s 46.8 mm
17:00 12.2° 1023.1 hPa 4.0 m/s 46.9 mm 12.3° 1023.4 hPa 4.0 m/s 11.1° 1020.2 hPa 4.4 m/s 46.9 mm
20:00 11.7° 1023.5 hPa 3.1 m/s 47.0 mm 11.8° 1023.7 hPa 2.9 m/s 10.9° 1020.8 hPa 4.8 m/s 47.0 mm
23:00 10.6° 1023.4 hPa 2.5 m/s 47.1 mm 10.6° 1023.5 hPa 2.2 m/s 10.0° 1021.8 hPa 5.6 m/s 47.1 mm
 03:42     23:37    Daglengte: 19:55 Maandag 24 Jun
02:00 9.4° 1023.2 hPa 1.8 m/s 47.1 mm 9.4° 1023.3 hPa 1.6 m/s 9.7° 1022.5 hPa 3.8 m/s 47.1 mm
08:00 11.2° 1023.2 hPa 2.7 m/s 47.3 mm 11.4° 1023.2 hPa 2.7 m/s 9.2° 1023.1 hPa 2.5 m/s 47.3 mm
14:00 13.8° 1023.1 hPa 4.4 m/s 47.4 mm 14.2° 1023.1 hPa 4.6 m/s 9.6° 1022.9 hPa 1.8 m/s 47.4 mm
20:00 12.5° 1021.8 hPa 4.0 m/s 47.4 mm 12.7° 1021.7 hPa 4.1 m/s 10.0° 1022.7 hPa 3.1 m/s 47.4 mm
 03:43     23:37    Daglengte: 19:54 Dinsdag 25 Jun
02:00 10.1° 1022.8 hPa 2.2 m/s 47.4 mm 10.2° 1022.8 hPa 2.0 m/s 9.4° 1022.7 hPa 4.5 m/s 47.4 mm
08:00 11.3° 1021.5 hPa 3.1 m/s 47.4 mm 11.5° 1021.5 hPa 3.0 m/s 9.6° 1021.1 hPa 4.8 m/s 47.4 mm
14:00 12.4° 1023.2 hPa 4.7 m/s 47.4 mm 12.6° 1023.5 hPa 4.2 m/s 10.5° 1020.0 hPa 9.7 m/s 47.4 mm
20:00 11.6° 1023.3 hPa 5.3 m/s 47.4 mm 11.7° 1023.7 hPa 4.9 m/s 10.4° 1018.4 hPa 9.5 m/s 47.4 mm
 03:44     23:36    Daglengte: 19:52 Woensdag 26 Jun
02:00 10.3° 1021.8 hPa 3.8 m/s 47.4 mm 10.3° 1022.3 hPa 3.5 m/s 9.8° 1016.6 hPa 7.6 m/s 47.4 mm
08:00 10.8° 1022.0 hPa 4.4 m/s 47.4 mm 10.9° 1022.7 hPa 4.0 m/s 9.9° 1014.2 hPa 8.2 m/s 47.4 mm
14:00 10.6° 1012.4 hPa 11.6 m/s 47.4 mm 10.6° 1012.4 hPa 11.6 m/s 47.4 mm
20:00 14.3° 1018.6 hPa 1.2 m/s 0.4 mm
 03:45     23:36    Daglengte: 19:51 Donderdag 27 Jun
02:00 10.7° 1017.9 hPa 0.9 m/s 0.4 mm
08:00 12.7° 1015.7 hPa 1.0 m/s 0.6 mm
14:00 15.7° 1014.1 hPa 1.3 m/s 0.6 mm
20:00 14.5° 1012.9 hPa 1.2 m/s 0.5 mm
 03:46     23:35    Daglengte: 19:49 Vrijdag 28 Jun
02:00 11.1° 1012.5 hPa 0.6 m/s 0.9 mm
08:00 12.5° 1011.1 hPa 0.3 m/s 0.4 mm
14:00 15.5° 1010.3 hPa 1.8 m/s 0.6 mm
20:00 14.1° 1009.8 hPa 2.3 m/s 0.7 mm
 03:47     23:34    Daglengte: 19:47 Zaterdag 29 Jun
02:00 10.8° 1009.9 hPa 0.5 m/s 0.7 mm
08:00 12.3° 1009.3 hPa 0.5 m/s 0.5 mm
14:00 14.9° 1009.3 hPa 1.8 m/s 0.6 mm
20:00 13.9° 1009.4 hPa 2.1 m/s 0.4 mm
 03:48     23:33    Daglengte: 19:45 Zondag 30 Jun
02:00 10.7° 1009.8 hPa 0.3 m/s 0.3 mm
08:00 12.5° 1009.0 hPa 0.5 m/s 0.6 mm
14:00 15.5° 1008.6 hPa 2.0 m/s 0.8 mm
20:00 14.3° 1008.8 hPa 2.0 m/s 0.5 mm
 03:49     23:33    Daglengte: 19:44 Maandag 01 Jul
02:00 10.6° 1009.6 hPa 0.7 m/s 0.8 mm
08:00 12.3° 1009.5 hPa 0.7 m/s 0.8 mm
14:00 14.8° 1009.9 hPa 1.8 m/s 0.9 mm
20:00 13.6° 1010.5 hPa 2.1 m/s 0.9 mm
FMI Hirlam - 7.5 km EWN WRFDA - 12 km DWD ICON - 7 km GFS - 25 km Basiskaart






























































Updatetijd (Europe/Amsterdam) Resolutie Lengte Stap
FMI Hirlam 01:15, 07:15, 13:15, 19:15 7.5 km 49h 1h
EWN WRFDA 22:15, 04:15, 10:15, 16:15 12 km 73h 1h
DWD ICON 23:45, 05:45, 11:45, 17:45 7 km 75h 1h
GFS 20:30, 02:30, 08:30, 14:30 25 km 237h 3h
30+ mm
25-30 mm
20-25 mm
15-20 mm
10-15 mm
6-10 mm
4-6 mm
2-4 mm
1-2 mm
0.5-1 mm
0.2-0.5 mm
0.1-0.2 mm
30+ mm
25-30 mm
20-25 mm
15-20 mm
10-15 mm
6-10 mm
4-6 mm
2-4 mm
1-2 mm
0.5-1 mm
0.2-0.5 mm
0.1-0.2 mm
Sneeuwval
Natte sneeuw
Hagel
Vorst
30+ mm
25-30 mm
20-25 mm
15-20 mm
10-15 mm
6-10 mm
4-6 mm
2-4 mm
1-2 mm
0.5-1 mm
0.2-0.5 mm
0.1-0.2 mm
Sneeuwval
Natte sneeuw
Hagel
Vorst
Onweer
50 mm
40 mm
30 mm
26 mm
22 mm
18 mm
14 mm
10 mm
9 mm
8 mm
7 mm
6 mm
5 mm
4.5 mm
4 mm
3.5 mm
3 mm
2.5 mm
2 mm
1.5 mm
1 mm
0.8 mm
0.6 mm
0.4 mm
0.2 mm
0.05 mm
35°
30°
25°
20°
15°
10°
-5°
-10°
-15°
-20°
-25°
-30°
-35°
120> km/h
105 km/h
90 km/h
75 km/h
60 km/h
50 km/h
40 km/h
30 km/h
20 km/h
10 km/h
0 km/h
2600 J/kg
2400 J/kg
2200 J/kg
2000 J/kg
1800 J/kg
1600 J/kg
1400 J/kg
1200 J/kg
1000 J/kg
800 J/kg
600 J/kg
400 J/kg
200 J/kg
70 dBZ
65 dBZ
60 dBZ
55 dBZ
50 dBZ
45 dBZ
40 dBZ
35 dBZ
30 dBZ
25 dBZ
20 dBZ
15 dBZ
10 dBZ
5 dBZ
-1 K
-2 K
-3 K
-4 K
-5 K